Ana Sayfa
METAR-TAF:

METAR-TAF

Havaalanları :

Cortez, Colorado, Amerika Birleşik Devletleri

Enlem: 37-18-23N, Boylam: 108-37-32W, yükseklik: 1803 m

Güncel hava durumu gözlemi

Rapor saat 21:53 UTC de 53 dakika önce yapıldı.
Rüzgar batıdan 12 kt ve 18 kt'a kadar ani rüzgarlar
Sıcaklık 29°C
Nem 23%
Basınç 1024 hPa
Görüş mesafesi: 16.1 km
Açık gökyüzü

METAR: KCEZ 032153Z AUTO 28012G18KT 10SM CLR 29/06 A3024 RMK AO2 PK WND 30026/2100 SLP164 T02940061

Saat: 16:46 (22:46 UTC)


TAF: eksik

4.000'den fazla havaalanı için hava durumu gözlemleri ve tahminleri (METAR ve TAF raporları).

Kullanılabilir istasyonlar harita üzerinde sarı ve kırmızı noktalarla gösterilir.

İstasyonun adını görmek için fareyi noktanın üzerinde gezdirin.

Sonrasında hava gözlem ve tahminlerini görmek için tıklayın.

Haritayı değiştirmek için: yaklaştırmak için siyah artı işaretli yeşil düğmeye ve uzaklaştırmak için de eksi işaretli düğmeye hızla tıklayın; bitişik haritalar için yeşil okları kullanın.


METAR-TAF: